Weather History for Crossville, TN

Change the Weather History Date:

Monday, November 19, 2012

  Actual Average Record
Temperature  
Mean Temperature 46 °F -  
Max Temperature 62 °F 56 °F 71 °F (1985)
Min Temperature 30 °F 37 °F 17 °F (2008)
Degree Days  
Heating Degree Days 19    
Month to date heating degree days 363  
Moisture  
Dew Point 32 °F    
Average Humidity 60    
Maximum Humidity 85    
Minimum Humidity 35    
Precipitation  
Precipitation 0.00 in - - ()
Month to date precipitation 1.31  
Year to date precipitation 41.28  
Sea Level Pressure  
Sea Level Pressure 30.29 in    
Wind  
Wind Speed 1 mph (NNW)    
Max Wind Speed 9 mph    
Max Gust Speed 13 mph    
Visibility 10 miles    
Events      
T = Trace of Precipitation, MM = Missing Value Source: NWS Daily Summary

Daily Weather History Graph

Daily Weather History Graph

Search for Another Location

Airport:

Trip Planner

Search our weather history database for the weather conditions in past years. The results will help you decide how hot, cold, wet, or windy it might be!

Date:

Astronomy

Nov. 19, 2012 Rise Set
Actual Time 6:21 AM CST 4:30 PM CST
Civil Twilight 5:53 AM CST 4:57 PM CST
Nautical Twilight 5:22 AM CST 5:28 PM CST
Astronomical Twilight 4:52 AM CST 5:59 PM CST
Moon 11:27 AM CST (11/19) 10:51 PM CST (11/19)
Length of Visible Light 11h 04m
Length of Day
10h 08m
Waxing Crescent, 41% of the Moon is Illuminated
Nov 19
Waxing Crescent
Nov 20
First Quarter
Nov 28
Full
Dec 6
Last Quarter
Dec 13
New

Hourly Weather History & Observations

Time (CST) Temp. Dew Point Humidity Pressure Visibility Wind Dir Wind Speed Gust Speed Precip Events Conditions
12:53 AM 33.1 °F 26.1 °F 75% 30.34 in 10.0 mi Calm Calm - N/A   Clear
1:53 AM 34.0 °F 27.0 °F 75% 30.33 in 10.0 mi Calm Calm - N/A   Clear
2:53 AM 32.0 °F 25.0 °F 75% 30.34 in 10.0 mi Calm Calm - N/A   Clear
3:53 AM 30.9 °F 25.0 °F 79% 30.33 in 10.0 mi Calm Calm - N/A   Clear
4:53 AM 30.0 °F 25.0 °F 82% 30.34 in 10.0 mi Calm Calm - N/A   Clear
5:53 AM 30.9 °F 25.0 °F 79% 30.35 in 10.0 mi Calm Calm - N/A   Clear
6:53 AM 32.0 °F 27.0 °F 82% 30.35 in 10.0 mi Calm Calm - N/A   Clear
7:53 AM 39.9 °F 34.0 °F 79% 30.35 in 10.0 mi Calm Calm - N/A   Clear
8:53 AM 46.9 °F 37.0 °F 68% 30.35 in 8.0 mi Calm Calm - N/A   Clear
9:53 AM 52.0 °F 37.0 °F 57% 30.35 in 9.0 mi ENE 3.5 mph - N/A   Clear
10:53 AM 57.0 °F 33.1 °F 40% 30.33 in 10.0 mi Calm Calm - N/A   Clear
11:53 AM 59.0 °F 33.1 °F 38% 30.30 in 10.0 mi North 3.5 mph - N/A   Clear
12:53 PM 60.1 °F 35.1 °F 39% 30.27 in 10.0 mi Variable 3.5 mph - N/A   Clear
1:53 PM 61.0 °F 32.0 °F 34% 30.25 in 10.0 mi North 6.9 mph - N/A   Clear
2:53 PM 60.1 °F 37.0 °F 42% 30.25 in 10.0 mi WNW 5.8 mph - N/A   Clear
3:53 PM 59.0 °F 36.0 °F 42% 30.25 in 10.0 mi NNW 4.6 mph - N/A   Clear
4:53 PM 54.0 °F 36.0 °F 51% 30.24 in 10.0 mi NW 3.5 mph - N/A   Clear
5:53 PM 48.0 °F 36.0 °F 63% 30.25 in 10.0 mi Calm Calm - N/A   Clear
6:53 PM 45.0 °F 35.1 °F 68% 30.25 in 10.0 mi Calm Calm - N/A   Clear
7:53 PM 42.1 °F 34.0 °F 73% 30.25 in 10.0 mi Calm Calm - N/A   Clear
8:53 PM 39.0 °F 33.1 °F 79% 30.24 in 10.0 mi Calm Calm - N/A   Clear
9:53 PM 39.0 °F 34.0 °F 82% 30.23 in 10.0 mi Calm Calm - N/A   Clear
10:53 PM 39.9 °F 35.1 °F 83% 30.21 in 10.0 mi Calm Calm - N/A   Clear
11:53 PM 41.0 °F 36.0 °F 82% 30.19 in 10.0 mi Calm Calm - N/A   Partly Cloudy